STARLINK-1978 (47576 NORAD) Tracking and Keplerian Element Data

This shows tracking and keplerian element data for the satellite.

Feedback or suggestion? Click here.




ElementValue
Catalog47576
NameSTARLINK-1978
Epoch Orbit177
Epoch Day101.91668981
Epoch Year2021
RAAN157.5068
Inclination53.0523
Eccentricity0.0003406
Argument of Perigee12.0583
Mean Anonmoly250.1616
Mean Motion15.62794311
Decay Rate-4.02E-06
L11 47576U 21009AE 21101.91668981 -.00000402 00000-0 14785-5 0 9991
L22 47576 53.0523 157.5068 0003406 12.0583 250.1616 15.62794311 1778

Live tracking and technical data element details for STARLINK-1978 (NORAD 47576). STARLINK-1978 can be tracked NOW for your location showing map with azimuth and elevation plus other details from your city location.

Track the satellite on the map from your city or location and see movement details for azimuth, elevation, latitude, longitude, range, height, and movement on the map or in text.







IsCatalogInMostPopularTable: catalog: 47576, numindb: 18
Update: records affected: 1



GetName: 47576 STARLINK-1978

Hit Count: updated at: Tue, 13 Apr 2021 05:07:57 GMT